FW6919 Weather Reports


Display with metric or nautical units.
time (UTC)temp
F
wind
direction
speed
MPH
gust
MPH
rain 1hr
in
rain 24hr
in
rain mn
in
humidity
%
barometer
mb
20240304072418 69 176 8.0 26.0 0.00 0.00 0.00 81 1010.1
20240304071913 69 196 8.0 25.0 0.00 0.00 0.00 81 1010.0
20240304071412 69 166 10.0 25.0 0.00 0.00 0.00 81 1009.9
20240304070915 69 194 10.0 25.0 0.00 0.00 0.00 80 1010.0
20240304070416 70 169 9.0 25.0 0.00 0.00 0.00 80 1010.1
20240304065917 70 222 9.0 31.0 0.00 0.00 0.00 80 1010.1
20240304065415 70 233 8.0 31.0 0.00 0.00 0.00 79 1010.1
20240304064914 70 205 14.0 23.0 0.00 0.00 0.00 79 1010.2
20240304064417 70 183 6.0 23.0 0.00 0.00 0.00 78 1010.0
20240304063917 70 185 8.0 23.0 0.00 0.00 0.00 78 1010.1
20240304063414 70 287 4.0 21.0 0.00 0.00 0.00 77 1010.1
20240304062913 70 196 9.0 21.0 0.00 0.00 0.00 76 1010.1
20240304062417 71 169 5.0 18.0 0.00 0.00 0.00 76 1010.2
20240304061846 71 171 5.0 20.0 0.00 0.00 0.00 75 1010.2
20240304061414 71 145 12.0 20.0 0.00 0.00 0.00 75 1010.2
20240304060915 71 173 7.0 20.0 0.00 0.00 0.00 74 1010.1
20240304060412 71 217 9.0 19.0 0.00 0.00 0.00 74 1010.0
20240304055914 71 175 8.0 19.0 0.00 0.00 0.00 73 1010.1
20240304055415 71 192 10.0 16.0 0.00 0.00 0.00 73 1010.0
20240304054914 71 213 5.0 16.0 0.00 0.00 0.00 73 1010.1
20240304054412 71 198 8.0 16.0 0.00 0.00 0.00 72 1010.0
20240304053914 71 194 10.0 19.0 0.00 0.00 0.00 72 1010.0
20240304053415 71 186 5.0 19.0 0.00 0.00 0.00 72 1010.0
20240304052848 72 187 7.0 19.0 0.00 0.00 0.00 72 1010.0
20240304052415 72 223 16.0 19.0 0.00 0.00 0.00 72 1009.8
20240304051914 72 176 14.0 18.0 0.00 0.00 0.00 72 1009.9
20240304051414 72 206 10.0 19.0 0.00 0.00 0.00 72 1009.9
20240304050916 72 198 7.0 22.0 0.00 0.00 0.00 72 1009.9
20240304050414 72 181 8.0 22.0 0.00 0.00 0.00 72 1010.0
20240304045914 72 215 9.0 19.0 0.00 0.00 0.00 72 1009.9
20240304045416 72 180 9.0 22.0 0.00 0.00 0.00 72 1010.0
20240304044912 72 188 12.0 24.0 0.00 0.00 0.00 72 1009.9
20240304044416 72 155 18.0 24.0 0.00 0.00 0.00 72 1009.8
20240304043915 72 198 9.0 22.0 0.00 0.00 0.00 72 1009.8
20240304043412 72 180 9.0 21.0 0.00 0.00 0.00 72 1009.7
20240304042912 72 196 8.0 17.0 0.00 0.00 0.00 72 1009.8
20240304042413 72 199 8.0 21.0 0.00 0.00 0.00 72 1009.9
20240304041917 72 172 8.0 23.0 0.00 0.00 0.00 72 1009.9
20240304041348 72 162 7.0 23.0 0.00 0.00 0.00 72 1009.8
20240304040913 72 142 10.0 23.0 0.00 0.00 0.00 72 1009.9
20240304040417 72 230 9.0 23.0 0.00 0.00 0.00 72 1009.9
20240304035916 73 191 7.0 21.0 0.00 0.00 0.00 72 1009.7
20240304035348 73 170 12.0 20.0 0.00 0.00 0.00 72 1009.8
20240304034913 72 197 10.0 24.0 0.00 0.00 0.00 72 1009.8
20240304034416 73 190 11.0 24.0 0.00 0.00 0.00 72 1009.8
20240304033847 73 192 13.0 17.0 0.00 0.00 0.00 72 1009.8
20240304033417 73 198 11.0 17.0 0.00 0.00 0.00 72 1009.8
20240304032914 73 171 7.0 21.0 0.00 0.00 0.00 72 1009.7
20240304032415 73 194 8.0 21.0 0.00 0.00 0.00 71 1009.7
20240304031846 73 205 11.0 21.0 0.00 0.00 0.00 71 1009.7
20240304031417 73 213 12.0 19.0 0.00 0.00 0.00 71 1009.8
20240304030916 74 208 9.0 24.0 0.00 0.00 0.00 71 1009.8
20240304030348 74 167 10.0 24.0 0.00 0.00 0.00 70 1009.8
20240304025916 74 178 16.0 17.0 0.00 0.00 0.00 70 1009.8
20240304025419 74 31 5.0 18.0 0.00 0.00 0.00 70 1009.8
20240304024918 74 28 11.0 18.0 0.00 0.00 0.00 69 1009.9
20240304024417 74 26 12.0 16.0 0.00 0.00 0.00 69 1009.8
20240304023847 74 27 10.0 16.0 0.00 0.00 0.00 69 1009.9
20240304023347 74 23 8.0 18.0 0.00 0.00 0.00 68 1009.8
20240304022915 74 24 9.0 18.0 0.00 0.00 0.00 68 1009.7
20240304022354 74 23 10.0 15.0 0.00 0.00 0.00 68 1009.7
20240304021915 74 28 10.0 13.0 0.00 0.00 0.00 67 1009.7
20240304021419 74 21 9.0 13.0 0.00 0.00 0.00 67 1009.7
20240304020847 74 25 11.0 12.0 0.00 0.00 0.00 66 1009.6
20240304020418 74 30 9.0 14.0 0.00 0.00 0.00 66 1009.5
20240304015947 74 26 6.0 15.0 0.00 0.00 0.00 65 1009.6
20240304015546 74 25 8.0 15.0 0.00 0.00 0.00 65 1009.6
20240304015114 74 23 8.0 15.0 0.00 0.00 0.00 65 1009.5
20240304014613 75 23 6.0 15.0 0.00 0.00 0.00 64 1009.6
20240304014047 75 23 6.0 16.0 0.00 0.00 0.00 64 1009.5
20240304013613 75 22 5.0 16.0 0.00 0.00 0.00 64 1009.5
20240304013114 75 19 9.0 16.0 0.00 0.00 0.00 64 1009.5
20240304012645 75 20 8.0 20.0 0.00 0.00 0.00 63 1009.4
20240304012247 75 21 7.0 20.0 0.00 0.00 0.00 63 1009.5
20240304011748 75 19 10.0 18.0 0.00 0.00 0.00 63 1009.3
20240304011317 75 21 7.0 18.0 0.00 0.00 0.00 63 1009.3
20240304010816 75 21 4.0 21.0 0.00 0.00 0.00 62 1009.3
20240304010315 75 21 4.0 21.0 0.00 0.00 0.00 62 1009.3
20240304005815 76 22 10.0 19.0 0.00 0.00 0.00 62 1009.3
20240304005316 76 22 11.0 19.0 0.00 0.00 0.00 62 1009.3
20240304004846 76 22 8.0 19.0 0.00 0.00 0.00 62 1009.2
20240304004415 76 22 5.0 20.0 0.00 0.00 0.00 61 1009.2
20240304003916 76 27 11.0 20.0 0.00 0.00 0.00 61 1009.1
20240304003347 76 24 13.0 20.0 0.00 0.00 0.00 62 1009.0
20240304002913 76 26 9.0 22.0 0.00 0.00 0.00 62 1009.1
20240304002414 76 23 6.0 22.0 0.00 0.00 0.00 62 1008.9
20240304001916 76 23 8.0 21.0 0.00 0.00 0.00 62 1008.9
20240304001414 76 24 18.0 14.0 0.00 0.00 0.00 62 1009.0
20240304000847 76 23 10.0 18.0 0.00 0.00 0.00 62 1008.9
20240304000448 76 21 4.0 18.0 0.00 0.00 0.00 61 1008.9
20240304000047 76 22 8.0 21.0 0.00 0.00 0.00 61 1008.9
20240303235613 77 19 8.0 21.0 0.00 0.00 0.00 61 1009.0
20240303235115 77 24 10.0 20.0 0.00 0.00 0.00 60 1009.0
20240303234612 77 24 8.0 19.0 0.00 0.00 0.00 59 1009.0
20240303234113 77 146 9.0 21.0 0.00 0.00 0.00 59 1008.9
20240303233612 77 181 6.0 21.0 0.00 0.00 0.00 58 1008.8
20240303233146 77 158 13.0 22.0 0.00 0.00 0.00 58 1008.9
20240303232747 78 173 10.0 22.0 0.00 0.00 0.00 57 1008.9
20240303232317 78 161 8.0 22.0 0.00 0.00 0.00 56 1008.9
20240303231815 78 158 7.0 21.0 0.00 0.00 0.00 55 1009.0
20240303231315 78 178 11.0 28.0 0.00 0.00 0.00 55 1008.8
20240303230751 79 158 11.0 28.0 0.00 0.00 0.00 54 1008.8
20240303230314 79 183 14.0 22.0 0.00 0.00 0.00 53 1008.8
20240303225813 79 183 8.0 22.0 0.00 0.00 0.00 53 1008.7
20240303225314 79 182 7.0 23.0 0.00 0.00 0.00 52 1008.7
20240303224817 79 196 7.0 25.0 0.00 0.00 0.00 53 1008.7
20240303224315 79 233 12.0 25.0 0.00 0.00 0.00 53 1008.7
20240303223816 79 185 13.0 24.0 0.00 0.00 0.00 52 1008.7
20240303223316 80 142 16.0 22.0 0.00 0.00 0.00 52 1008.7
20240303222813 79 157 12.0 22.0 0.00 0.00 0.00 52 1008.8
20240303222247 79 176 10.0 25.0 0.00 0.00 0.00 52 1008.8
20240303221749 80 178 13.0 25.0 0.00 0.00 0.00 52 1008.8
20240303221315 80 205 8.0 23.0 0.00 0.00 0.00 52 1008.8
20240303220814 80 185 9.0 23.0 0.00 0.00 0.00 51 1008.8
20240303220317 80 190 15.0 23.0 0.00 0.00 0.00 51 1008.9
20240303215815 80 173 11.0 24.0 0.00 0.00 0.00 51 1008.8
20240303215247 80 191 15.0 24.0 0.00 0.00 0.00 49 1008.7
20240303214815 80 165 16.0 21.0 0.00 0.00 0.00 49 1008.8
20240303214312 80 209 13.0 21.0 0.00 0.00 0.00 49 1009.0
20240303213813 80 206 13.0 21.0 0.00 0.00 0.00 50 1009.0
20240303213312 79 208 9.0 22.0 0.00 0.00 0.00 51 1009.1
20240303212748 79 188 14.0 22.0 0.00 0.00 0.00 50 1009.1
20240303212313 80 204 9.0 19.0 0.00 0.00 0.00 50 1009.2
20240303211815 79 202 10.0 19.0 0.00 0.00 0.00 49 1009.3
20240303211315 80 186 8.0 21.0 0.00 0.00 0.00 49 1009.3
20240303210813 80 185 11.0 22.0 0.00 0.00 0.00 49 1009.2
20240303210314 80 140 7.0 22.0 0.00 0.00 0.00 51 1009.3
20240303205816 80 221 20.0 25.0 0.00 0.00 0.00 50 1009.4
20240303205312 80 197 15.0 25.0 0.00 0.00 0.00 49 1009.3
20240303204812 80 173 11.0 24.0 0.00 0.00 0.00 49 1009.5
20240303204313 80 215 7.0 22.0 0.00 0.00 0.00 49 1009.3
20240303203811 79 221 10.0 22.0 0.00 0.00 0.00 50 1009.5
20240303203312 79 178 9.0 20.0 0.00 0.00 0.00 51 1009.6
20240303202816 79 231 10.0 22.0 0.00 0.00 0.00 51 1009.6
20240303202315 79 229 9.0 22.0 0.00 0.00 0.00 51 1009.8
20240303201813 79 205 16.0 21.0 0.00 0.00 0.00 52 1009.9
20240303201248 79 207 11.0 21.0 0.00 0.00 0.00 52 1010.0
20240303200812 79 209 9.0 23.0 0.00 0.00 0.00 52 1010.0
20240303200314 78 122 13.0 23.0 0.00 0.00 0.00 54 1009.9
20240303195747 78 213 9.0 21.0 0.00 0.00 0.00 54 1010.1
20240303195249 78 134 15.0 20.0 0.00 0.00 0.00 54 1010.1
20240303194750 78 156 16.0 20.0 0.00 0.00 0.00 55 1010.2
20240303194317 78 222 15.0 20.0 0.00 0.00 0.00 55 1010.4
20240303193746 77 223 16.0 25.0 0.00 0.00 0.00 56 1010.5
20240303193249 77 174 8.0 25.0 0.00 0.00 0.00 56 1010.4
20240303192813 77 208 14.0 22.0 0.00 0.00 0.00 57 1010.5
20240303192312 77 214 10.0 25.0 0.00 0.00 0.00 57 1010.6
20240303191747 76 250 13.0 25.0 0.00 0.00 0.00 58 1010.7
20240303191247 77 163 13.0 25.0 0.00 0.00 0.00 57 1010.9
20240303190746 77 202 11.0 23.0 0.00 0.00 0.00 58 1010.9
20240303190315 76 151 11.0 23.0 0.00 0.00 0.00 59 1011.0
20240303185812 76 181 9.0 22.0 0.00 0.00 0.00 60 1011.1
20240303185315 76 200 11.0 22.0 0.00 0.00 0.00 60 1011.3
20240303184814 76 213 15.0 23.0 0.00 0.00 0.00 61 1011.4
20240303184317 75 184 10.0 23.0 0.00 0.00 0.00 61 1011.3
20240303183748 75 184 13.0 23.0 0.00 0.00 0.00 61 1011.4
20240303183249 74 198 10.0 23.0 0.00 0.00 0.00 61 1011.5
20240303182815 74 160 10.0 23.0 0.00 0.00 0.00 61 1011.6
20240303182312 74 161 9.0 22.0 0.00 0.00 0.00 61 1011.6
20240303181746 74 211 10.0 21.0 0.00 0.00 0.00 62 1011.8
20240303181248 74 208 11.0 20.0 0.00 0.00 0.00 62 1011.8
20240303180814 74 204 8.0 20.0 0.00 0.00 0.00 63 1011.9
20240303180314 73 205 9.0 20.0 0.00 0.00 0.00 63 1012.0
20240303175815 73 202 14.0 18.0 0.00 0.00 0.00 64 1012.2
20240303175248 73 207 6.0 23.0 0.00 0.00 0.00 64 1012.2
20240303174749 73 162 7.0 26.0 0.00 0.00 0.00 64 1012.3
20240303174316 73 211 13.0 26.0 0.00 0.00 0.00 64 1012.3
20240303173814 72 188 12.0 24.0 0.00 0.00 0.00 66 1012.4
20240303173314 72 218 17.0 24.0 0.00 0.00 0.00 65 1012.5
20240303172813 72 181 13.0 24.0 0.00 0.00 0.00 66 1012.7
20240303172314 72 215 9.0 24.0 0.00 0.00 0.00 67 1012.7
20240303171815 72 192 10.0 23.0 0.00 0.00 0.00 67 1012.6
20240303171249 72 209 15.0 21.0 0.00 0.00 0.00 67 1012.7
20240303170813 71 167 14.0 21.0 0.00 0.00 0.00 68 1012.7
20240303170317 71 202 15.0 21.0 0.00 0.00 0.00 69 1012.7
20240303165814 71 165 15.0 23.0 0.00 0.00 0.00 69 1012.9
20240303165317 71 163 8.0 23.0 0.00 0.00 0.00 69 1013.1
20240303164815 71 232 14.0 23.0 0.00 0.00 0.00 69 1013.2
20240303164246 71 169 7.0 23.0 0.00 0.00 0.00 70 1013.2
20240303163746 70 134 10.0 20.0 0.00 0.00 0.00 71 1013.1
20240303163247 70 175 17.0 22.0 0.00 0.00 0.00 70 1013.1
20240303162816 70 261 1.0 22.0 0.00 0.00 0.00 71 1013.1
20240303162249 69 161 19.0 22.0 0.00 0.00 0.00 71 1013.1
20240303161845 69 183 14.0 22.0 0.00 0.00 0.00 72 1013.0
20240303161345 69 201 7.0 23.0 0.00 0.00 0.00 73 1013.0
20240303160847 68 150 4.0 26.0 0.00 0.00 0.00 74 1013.0
20240303160348 68 207 10.0 26.0 0.00 0.00 0.00 74 1013.0
20240303155912 68 159 15.0 25.0 0.00 0.00 0.00 74 1012.9
20240303155414 68 188 9.0 28.0 0.00 0.00 0.00 76 1012.9
20240303154913 67 194 11.0 28.0 0.00 0.00 0.00 75 1012.9
20240303154418 67 195 12.0 25.0 0.00 0.00 0.00 76 1012.9
20240303153847 67 202 12.0 25.0 0.00 0.00 0.00 77 1013.0
20240303153416 66 210 14.0 25.0 0.00 0.00 0.00 77 1012.9
20240303152915 66 190 15.0 23.0 0.00 0.00 0.00 78 1013.0
20240303152416 66 203 11.0 23.0 0.00 0.00 0.00 78 1013.0
20240303151914 66 241 18.0 23.0 0.00 0.00 0.00 79 1013.1
20240303151416 66 200 10.0 20.0 0.00 0.00 0.00 80 1013.1
20240303150922 65 207 12.0 24.0 0.00 0.00 0.00 80 1013.0
20240303150359 65 186 11.0 26.0 0.00 0.00 0.00 81 1013.1
20240303145857 65 190 9.0 26.0 0.00 0.00 0.00 82 1013.1
20240303145414 64 190 10.0 24.0 0.00 0.00 0.00 82 1013.1
20240303144914 64 208 8.0 18.0 0.00 0.00 0.00 82 1012.9
20240303144413 64 207 12.0 20.0 0.00 0.00 0.00 82 1012.9
20240303143915 64 203 11.0 23.0 0.00 0.00 0.00 82 1012.9
20240303143415 64 181 5.0 23.0 0.00 0.00 0.00 83 1012.9
20240303142845 63 203 11.0 24.0 0.00 0.00 0.00 83 1012.9
20240303142348 63 179 7.0 24.0 0.00 0.00 0.00 84 1012.8
20240303141847 63 163 11.0 20.0 0.00 0.00 0.00 84 1012.6
20240303141414 63 192 10.0 18.0 0.00 0.00 0.00 84 1012.7
20240303140845 63 209 13.0 19.0 0.00 0.00 0.00 85 1012.6
20240303140346 62 163 6.0 19.0 0.00 0.00 0.00 85 1012.6
20240303135913 62 181 7.0 14.0 0.00 0.00 0.00 86 1012.6
20240303135415 62 175 8.0 16.0 0.00 0.00 0.00 86 1012.6
20240303134846 62 157 9.0 16.0 0.00 0.00 0.00 86 1012.6
20240303134415 62 167 8.0 19.0 0.00 0.00 0.00 87 1012.4
20240303133915 62 217 11.0 19.0 0.00 0.00 0.00 87 1012.5
20240303133413 62 244 8.0 11.0 0.00 0.00 0.00 87 1012.4
20240303132916 62 207 8.0 12.0 0.00 0.00 0.00 87 1012.3
20240303132415 62 161 7.0 12.0 0.00 0.00 0.00 87 1012.2
20240303131915 62 188 12.0 13.0 0.00 0.00 0.00 87 1012.2
20240303131354 62 136 7.0 13.0 0.00 0.00 0.00 87 1012.2
20240303130848 62 157 8.0 13.0 0.00 0.00 0.00 87 1012.2
20240303130413 62 215 9.0 14.0 0.00 0.00 0.00 87 1012.1
20240303125847 62 222 9.0 14.0 0.00 0.00 0.00 87 1012.1
20240303125348 62 157 6.0 15.0 0.00 0.00 0.00 87 1012.1
20240303124846 62 178 10.0 15.0 0.00 0.00 0.00 87 1012.1
20240303124346 62 227 6.0 15.0 0.00 0.00 0.00 87 1012.0
20240303123846 62 179 8.0 18.0 0.00 0.00 0.00 87 1011.9
20240303123415 62 187 8.0 18.0 0.00 0.00 0.00 86 1011.9
20240303122847 62 184 5.0 18.0 0.00 0.00 0.00 86 1011.9
20240303122413 62 191 10.0 18.0 0.00 0.00 0.00 86 1011.9
20240303121916 62 173 9.0 18.0 0.00 0.00 0.00 87 1011.9
20240303121417 62 207 9.0 19.0 0.00 0.00 0.00 86 1011.9
20240303120913 62 194 11.0 19.0 0.00 0.00 0.00 87 1012.1
20240303120347 62 199 7.0 16.0 0.00 0.00 0.00 87 1012.0
20240303115846 62 200 7.0 16.0 0.00 0.00 0.00 87 1011.9
20240303115416 62 184 8.0 16.0 0.00 0.00 0.00 87 1011.9
20240303114916 62 168 6.0 16.0 0.00 0.00 0.00 87 1012.0
20240303114413 62 206 6.0 16.0 0.00 0.00 0.00 87 1012.0
20240303113913 62 207 11.0 16.0 0.00 0.00 0.00 87 1011.9
20240303113415 62 212 11.0 16.0 0.00 0.00 0.00 87 1011.9
20240303112846 62 179 7.0 17.0 0.00 0.00 0.00 87 1011.9
20240303112413 62 190 10.0 17.0 0.00 0.00 0.00 87 1012.0
20240303111914 62 155 9.0 14.0 0.00 0.00 0.00 87 1012.0
20240303111417 62 180 7.0 15.0 0.00 0.00 0.00 87 1011.9
20240303110918 62 193 10.0 15.0 0.00 0.00 0.00 87 1011.8
20240303110413 62 168 7.0 16.0 0.00 0.00 0.00 87 1011.8
20240303105913 62 190 4.0 18.0 0.00 0.00 0.00 87 1011.8
20240303105415 62 175 4.0 18.0 0.00 0.00 0.00 87 1011.6
20240303104847 62 164 9.0 15.0 0.00 0.00 0.00 87 1011.6
20240303104416 62 173 12.0 14.0 0.00 0.00 0.00 87 1011.6
20240303103952 62 188 7.0 14.0 0.00 0.00 0.00 87 1011.6
20240303103546 62 161 5.0 13.0 0.00 0.00 0.00 87 1011.5
20240303103114 62 192 10.0 15.0 0.00 0.00 0.00 87 1011.6
20240303102613 62 184 8.0 15.0 0.00 0.00 0.00 88 1011.5
20240303102114 62 134 10.0 15.0 0.00 0.00 0.00 87 1011.6
20240303101614 62 164 5.0 17.0 0.00 0.00 0.00 87 1011.5
20240303101116 62 197 9.0 17.0 0.00 0.00 0.00 87 1011.5
20240303100613 62 186 6.0 14.0 0.00 0.00 0.00 87 1011.5
20240303100115 62 171 8.0 14.0 0.00 0.00 0.00 87 1011.6
20240303095616 63 178 8.0 14.0 0.00 0.00 0.00 88 1011.5
20240303095116 63 166 6.0 14.0 0.00 0.00 0.00 88 1011.6
20240303094615 63 212 11.0 14.0 0.00 0.00 0.00 88 1011.5
20240303094114 63 174 9.0 16.0 0.00 0.00 0.00 88 1011.7
20240303093614 63 213 5.0 16.0 0.00 0.00 0.00 88 1011.6
20240303093114 63 213 5.0 13.0 0.00 0.00 0.00 88 1011.5
20240303092646 63 184 10.0 18.0 0.00 0.00 0.00 88 1011.5
20240303092214 63 184 5.0 18.0 0.00 0.00 0.00 88 1011.5
20240303091715 63 162 12.0 15.0 0.00 0.00 0.00 88 1011.5
20240303091212 63 200 8.0 15.0 0.00 0.00 0.00 88 1011.5
20240303090715 63 169 12.0 15.0 0.00 0.00 0.00 88 1011.3
20240303090148 63 195 7.0 18.0 0.00 0.00 0.00 88 1011.3
20240303085714 64 194 8.0 18.0 0.00 0.00 0.00 88 1011.3
20240303085216 64 164 6.0 16.0 0.00 0.00 0.00 88 1011.3
20240303084715 64 190 8.0 18.0 0.00 0.00 0.00 88 1011.5
20240303084215 64 158 7.0 19.0 0.00 0.00 0.00 88 1011.5
20240303083715 64 157 10.0 19.0 0.00 0.00 0.00 88 1011.5
20240303083212 64 205 6.0 19.0 0.00 0.00 0.00 89 1011.4
20240303082713 64 154 11.0 18.0 0.00 0.00 0.00 89 1011.5
20240303082214 64 217 10.0 16.0 0.00 0.00 0.00 89 1011.6
20240303081714 63 218 9.0 17.0 0.00 0.00 0.00 89 1011.6
20240303081212 63 205 8.0 17.0 0.00 0.00 0.00 89 1011.5
20240303080714 63 196 14.0 17.0 0.00 0.00 0.00 89 1011.4
20240303080214 63 203 8.0 20.0 0.00 0.00 0.00 89 1011.4
20240303075716 63 197 10.0 20.0 0.00 0.00 0.00 89 1011.4
20240303075213 63 202 6.0 16.0 0.00 0.00 0.00 89 1011.5
20240303074713 63 188 9.0 16.0 0.00 0.00 0.00 89 1011.6
20240303074213 63 167 9.0 16.0 0.00 0.00 0.00 89 1011.6
20240303073716 63 200 15.0 18.0 0.00 0.00 0.00 89 1011.8
20240303073213 63 205 8.0 18.0 0.00 0.00 0.00 89 1011.7
20240303072717 63 191 15.0 15.0 0.00 0.00 0.00 89 1011.7